{"data":{"norad_id":49160,"epoch":"2026-09-20T03:33:24.427296Z","epoch_age_seconds":71704,"freshness":"FRESH","line1":"1 49160U 21082AG  26263.14819939  .00000912  00000+0  84251-4 0  9991","line2":"2 49160  69.9999 164.1396 0002965 272.1897  87.8922 14.98330407276179","mean_motion":14.98330407,"eccentricity":0.0002965,"inclination_deg":69.9999,"raan_deg":164.1396,"arg_perigee_deg":272.1897,"mean_anomaly_deg":87.8922,"bstar":8.4251e-5,"rev_number":27617,"period_min":96.106973019603,"perigee_km":569.99390051179,"apogee_km":574.11536414976,"semimajor_km":6950.1916323308,"source":"CELESTRAK","updated_at":"2026-09-20T09:00:39.251705Z"}}